Temp
-9 -9 -9 -9 -8 -8 -8 -8 -8 -8 -8 -7 -8 -8 -8 -9 -9 -10 -10 -10 -10 -11 -11 -11 -11 -11 -11 -12 -12 -12 -12 -13 -13
-9 -9 -9 -9 -9 -9 -8 -8 -8 -8 -8 -8 -8 -8 -9 -9 -10 -10 -10 -10 -10 -10 -11 -11 -11 -11 -11 -12 -12 -12 -13 -13 -13
-10 -10 -10 -9 -9 -9 -9 -9 -8 -8 -8 -8 -8 -9 -9 -9 -10 -10 -10 -10 -10 -11 -11 -11 -11 -11 -11 -12 -12 -13 -13 -13 -13
-10 -10 -10 -10 -9 -9 -9 -9 -9 -9 -9 -9 -9 -9 -9 -10 -10 -10 -10 -11 -11 -11 -11 -11 -11 -11 -11 -12 -12 -13 -13 -13 -14
-10 -10 -10 -10 -10 -9 -9 -9 -9 -9 -9 -9 -9 -9 -9 -10 -10 -11 -11 -11 -11 -11 -11 -11 -11 -11 -12 -12 -12 -12 -12 -13 -14
-10 -10 -10 -10 -10 -10 -10 -9 -9 -9 -9 -9 -10 -10 -10 -10 -10 -11 -11 -11 -11 -11 -11 -11 -12 -12 -12 -12 -11 -12 -12 -12 -13
-11 -11 -11 -10 -10 -10 -10 -10 -10 -10 -10 -10 -10 -10 -10 -10 -11 -11 -11 -11 -11 -12 -12 -12 -12 -12 -12 -12 -12 -12 -12 -12 -13
-11 -11 -11 -11 -10 -10 -10 -10 -10 -10 -10 -10 -10 -10 -11 -11 -11 -11 -11 -11 -11 -11 -12 -12 -12 -12 -12 -12 -12 -12 -12 -12 -12
-11 -11 -11 -11 -11 -10 -10 -10 -10 -10 -10 -10 -10 -11 -11 -11 -11 -11 -11 -11 -11 -12 -12 -12 -12 -12 -12 -12 -12 -12 -12 -12 -12
-11 -11 -11 -11 -11 -11 -10 -11 -10 -10 -11 -11 -11 -11 -11 -11 -11 -11 -11 -11 -12 -12 -12 -12 -12 -12 -12 -12 -12 -12 -12 -12 -12
-11 -11 -11 -11 -11 -11 -11 -11 -11 -11 -11 -11 -11 -11 -11 -11 -11 -11 -12 -12 -12 -12 -12 -12 -12 -12 -13 -13 -12 -12 -12 -12 -12
-11 -11 -11 -11 -11 -11 -11 -11 -11 -11 -11 -11 -11 -12 -12 -12 -12 -12 -12 -12 -12 -12 -12 -13 -13 -13 -13 -13 -13 -13 -13 -13 -13
-12 -11 -11 -11 -11 -11 -11 -11 -11 -11 -11 -11 -12 -12 -12 -12 -12 -12 -12 -12 -12 -12 -13 -13 -13 -13 -13 -13 -13 -13 -13 -13 -13
-12 -12 -12 -11 -11 -11 -11 -11 -11 -12 -11 -11 -12 -12 -12 -12 -12 -12 -12 -12 -13 -13 -13 -13 -13 -13 -13 -13 -13 -13 -14 -14 -13
-12 -12 -12 -12 -12 -12 -12 -12 -12 -12 -12 -12 -12 -12 -13 -13 -13 -12 -13 -13 -13 -13 -13 -13 -13 -13 -14 -14 -14 -14 -14 -14 -14
-12 -12 -12 -12 -12 -12 -12 -12 -12 -12 -12 -12 -13 -13 -13 -13 -13 -13 -13 -13 -13 -13 -13 -13 -13 -14 -14 -14 -14 -14 -14 -14 -14
-12 -12 -12 -12 -12 -12 -12 -13 -13 -13 -13 -13 -13 -13 -13 -13 -13 -13 -13 -13 -13 -13 -13 -13 -13 -13 -13 -14 -14 -14 -14 -14 -14
-13 -12 -12 -12 -12 -13 -13 -13 -13 -13 -13 -13 -13 -13 -13 -13 -13 -13 -13 -13 -13 -13 -13 -13 -13 -14 -14 -14 -14 -14 -14 -14 -14
-13 -13 -13 -13 -13 -13 -13 -13 -13 -13 -13 -14 -14 -14 -13 -13 -13 -13 -13 -13 -13 -13 -13 -14 -14 -14 -14 -14 -14 -14 -14 -14 -14
-13 -13 -13 -13 -13 -13 -13 -13 -13 -14 -14 -14 -14 -14 -14 -13 -13 -13 -13 -13 -13 -13 -14 -14 -14 -14 -15 -15 -15 -15 -15 -15 -15
Height
5869 5868 5866 5864 5863 5861 5859 5857 5855 5852 5850 5847 5844 5840 5836 5834 5831 5829 5827 5825 5823 5820 5818 5816 5814 5811 5809 5807 5805 5803 5802 5801 5801
5867 5866 5863 5862 5860 5858 5856 5854 5851 5849 5846 5843 5840 5837 5833 5831 5830 5828 5826 5824 5822 5819 5816 5814 5812 5809 5807 5805 5803 5801 5799 5797 5796
5865 5863 5861 5859 5857 5855 5853 5851 5849 5846 5843 5840 5837 5834 5831 5830 5828 5826 5824 5822 5820 5817 5815 5812 5810 5807 5805 5803 5800 5798 5796 5794 5792
5863 5861 5859 5857 5855 5853 5851 5848 5846 5843 5841 5838 5835 5832 5830 5828 5826 5823 5821 5819 5817 5815 5812 5810 5807 5805 5802 5800 5797 5795 5792 5790 5788
5860 5859 5857 5855 5852 5850 5847 5845 5843 5841 5838 5836 5833 5830 5828 5826 5824 5821 5819 5817 5814 5812 5809 5807 5804 5802 5800 5797 5794 5791 5788 5786 5784
5858 5856 5854 5852 5850 5847 5845 5843 5841 5838 5836 5833 5831 5828 5825 5824 5821 5819 5817 5814 5812 5809 5807 5804 5802 5799 5796 5793 5791 5788 5784 5781 5779
5854 5853 5851 5849 5847 5844 5842 5840 5838 5835 5833 5831 5829 5826 5823 5821 5819 5816 5814 5811 5809 5806 5804 5801 5799 5796 5794 5790 5787 5783 5780 5777 5774
5852 5850 5848 5846 5844 5841 5839 5837 5834 5832 5830 5827 5825 5823 5820 5818 5816 5813 5811 5808 5806 5804 5801 5799 5796 5794 5791 5787 5784 5780 5776 5772 5768
5848 5846 5844 5842 5840 5838 5835 5833 5830 5828 5826 5823 5821 5819 5817 5815 5812 5811 5808 5806 5803 5801 5798 5795 5793 5790 5787 5784 5780 5776 5772 5768 5764
5844 5842 5840 5838 5836 5834 5832 5829 5827 5824 5821 5819 5817 5815 5813 5811 5808 5806 5804 5801 5799 5796 5794 5791 5788 5785 5782 5779 5775 5772 5768 5764 5760
5840 5838 5836 5833 5831 5830 5827 5825 5822 5819 5817 5814 5812 5810 5808 5806 5804 5802 5799 5797 5794 5791 5789 5786 5783 5780 5777 5774 5770 5767 5764 5760 5756
5835 5833 5831 5828 5827 5825 5822 5820 5817 5815 5812 5809 5806 5803 5801 5799 5798 5796 5793 5791 5789 5787 5784 5780 5778 5774 5771 5768 5765 5761 5759 5755 5751
5829 5827 5825 5823 5821 5819 5817 5814 5811 5808 5805 5802 5799 5797 5795 5793 5791 5789 5787 5784 5782 5779 5777 5774 5771 5768 5764 5761 5758 5755 5752 5750 5747
5824 5822 5819 5817 5815 5813 5810 5807 5804 5802 5798 5795 5792 5789 5787 5785 5783 5781 5779 5777 5775 5772 5769 5766 5763 5760 5757 5754 5751 5748 5745 5742 5739
5818 5816 5813 5811 5809 5806 5803 5800 5797 5794 5791 5788 5785 5782 5779 5777 5774 5772 5770 5767 5765 5763 5760 5757 5754 5751 5748 5745 5743 5740 5737 5734 5731
5812 5809 5807 5804 5801 5798 5795 5792 5789 5786 5783 5780 5777 5774 5771 5768 5766 5763 5761 5758 5755 5752 5749 5746 5743 5740 5737 5735 5732 5730 5727 5725 5723
5805 5802 5799 5796 5792 5789 5786 5783 5780 5777 5774 5771 5768 5765 5762 5759 5756 5753 5750 5747 5744 5740 5737 5734 5731 5728 5726 5724 5721 5718 5716 5714 5712
5797 5794 5790 5787 5783 5780 5777 5774 5771 5767 5764 5760 5758 5755 5752 5749 5746 5743 5739 5736 5732 5729 5725 5722 5718 5715 5713 5711 5708 5706 5705 5702 5700
5787 5784 5780 5776 5773 5770 5767 5763 5760 5756 5753 5750 5746 5743 5740 5737 5735 5730 5727 5724 5720 5715 5711 5707 5704 5700 5698 5695 5694 5692 5691 5689 5688
5777 5773 5769 5766 5762 5759 5756 5753 5749 5745 5742 5738 5734 5730 5727 5724 5721 5717 5711 5708 5703 5700 5696 5692 5688 5685 5682 5679 5677 5675 5674 5673 5672
Wind_Speed
18 18 18 18 19 20 22 23 26 28 31 33 33 34 32 25 20 18 19 20 20 19 18 18 18 17 16 16 17 19 22 26 29
19 19 19 20 20 21 22 24 26 29 32 33 32 30 27 22 19 18 19 21 22 21 20 20 19 19 19 18 18 19 20 22 26
19 19 21 22 21 21 23 24 27 29 32 31 29 26 24 21 18 17 18 19 19 19 19 20 20 21 21 21 21 21 22 22 23
18 20 22 22 22 22 22 24 27 29 31 30 25 23 22 21 19 18 18 18 17 17 19 20 21 21 22 23 24 24 24 25 24
19 21 22 22 22 22 24 25 27 28 29 26 20 21 20 19 19 18 19 18 19 19 19 19 21 21 22 23 25 27 27 26 26
20 21 21 21 22 23 25 26 27 28 28 24 18 20 21 19 19 19 20 21 21 21 19 18 20 21 22 23 24 26 29 30 28
20 20 19 21 23 25 26 27 27 27 27 22 17 20 21 20 19 20 21 21 21 20 19 21 23 24 24 25 25 25 27 29 29
20 20 20 22 23 26 27 27 28 28 27 22 19 21 21 20 20 20 21 20 20 21 23 26 27 28 28 28 28 27 27 27 29
22 21 21 23 24 27 28 27 28 28 28 24 22 23 22 22 22 22 22 22 21 22 23 25 26 27 29 29 28 30 28 27 29
23 22 22 24 24 26 26 26 27 28 29 27 25 24 23 23 22 21 20 20 21 21 22 23 26 28 29 30 30 31 30 28 27
25 24 25 25 25 26 26 25 27 30 31 30 27 26 25 24 23 23 23 23 23 23 25 26 27 28 29 30 31 31 32 31 29
26 26 26 26 26 26 26 26 28 31 32 31 29 29 29 28 27 27 26 26 26 26 27 28 30 31 32 33 32 32 32 32 31
25 26 27 28 27 27 27 27 29 31 33 33 31 31 32 32 31 30 30 30 30 31 31 32 33 33 34 34 35 35 34 32 32
27 28 28 29 29 29 30 31 32 32 34 34 33 33 33 33 33 34 33 33 33 33 34 34 35 36 36 37 37 37 36 35 33
28 29 30 31 31 31 33 34 34 35 36 36 35 35 35 35 34 35 35 36 37 38 38 39 41 42 42 41 41 40 39 39 36
31 32 32 32 33 34 36 37 37 37 38 37 37 36 37 37 35 36 38 40 41 42 44 45 46 46 47 46 45 44 43 41 40
34 34 34 36 37 39 40 41 41 41 41 40 39 39 38 38 40 41 43 46 47 48 49 50 51 51 51 50 49 47 45 44 43
37 37 38 39 41 43 44 44 44 44 43 42 41 41 41 43 44 46 48 50 51 52 54 54 55 54 53 52 52 51 49 48 46
40 40 42 43 45 46 46 46 47 46 44 44 44 45 47 48 50 52 54 55 56 57 58 59 59 58 58 56 55 54 53 51 50
43 44 46 47 47 48 49 49 49 48 48 48 49 51 52 54 55 56 59 60 61 62 62 62 62 61 60 59 59 58 56 55 53
Wind_Direction
312 314 313 309 306 307 311 317 323 324 327 331 336 340 339 343 336 339 348 350 354 0 2 2 0 359 354 343 326 310 296 283 274
313 314 314 313 312 312 315 322 326 328 330 334 340 342 338 343 333 336 338 342 345 346 349 349 348 346 343 339 335 328 312 297 282
314 317 318 316 317 319 323 331 330 331 335 339 342 341 338 335 328 332 333 333 337 341 340 339 338 337 335 333 328 324 320 311 302
315 318 320 321 322 323 333 335 335 336 340 343 341 337 338 332 327 329 329 326 328 328 326 329 329 329 330 327 324 319 313 309 305
316 320 323 327 329 335 340 340 340 341 343 342 337 333 335 330 324 323 323 323 323 321 324 327 329 329 327 329 326 319 314 304 300
317 323 327 332 336 342 343 342 342 343 343 339 331 327 329 325 323 323 323 323 321 321 328 333 331 332 332 329 326 319 316 310 299
322 327 329 334 341 343 343 344 345 343 339 331 323 322 320 318 318 318 317 318 319 321 323 325 327 329 330 328 324 321 319 315 306
322 327 328 335 340 342 343 345 344 339 333 324 317 314 310 310 312 316 316 316 318 320 322 326 330 330 328 327 327 326 321 318 312
320 327 329 334 338 340 341 343 341 332 329 321 312 306 306 307 312 315 316 317 321 323 327 329 330 330 328 327 326 326 325 320 316
319 323 327 331 334 335 334 337 335 328 326 317 303 299 300 303 309 315 316 318 316 316 315 318 319 321 321 322 322 323 322 319 316
317 319 323 324 325 327 328 330 330 327 321 317 300 296 294 295 301 304 304 306 307 311 314 316 318 318 318 318 318 317 317 318 316
313 314 316 318 320 320 321 321 323 323 319 316 301 293 289 290 292 293 293 296 300 303 306 309 312 315 315 315 314 312 311 311 312
309 311 312 316 315 314 315 314 314 315 315 311 300 290 289 290 290 292 294 295 299 301 304 307 309 310 310 310 310 309 307 305 304
309 309 310 312 312 311 309 308 309 312 311 307 298 289 290 291 290 290 293 296 298 299 301 302 302 302 303 303 303 303 303 300 298
309 307 308 309 308 305 303 305 307 307 307 305 299 290 289 292 290 291 294 297 298 299 300 300 300 300 299 299 299 298 297 295 292
308 307 307 305 301 299 300 301 304 304 303 300 296 293 292 293 293 294 295 296 297 297 297 297 297 297 297 297 297 295 294 291 288
305 306 302 299 297 297 298 301 303 303 301 298 295 293 293 293 295 296 296 297 298 298 297 297 296 294 293 293 292 291 289 287 285
303 299 297 295 294 295 298 301 302 300 298 296 295 293 294 294 294 295 295 295 295 294 292 292 291 290 290 290 290 288 286 284 281
299 295 293 292 293 296 299 300 299 298 297 296 295 295 294 295 295 295 294 294 293 292 291 290 288 287 287 286 285 284 282 280 278
294 291 290 292 295 297 298 298 297 296 296 296 296 295 294 293 293 292 292 292 291 290 288 286 286 285 284 283 282 281 278 276 274